Location: Castiglione Fibocchi
(43.5333°N, 11.7667°E)
Time: 18:13:06
(UTC+00:00)

Meteor 2-1 Rocket - Pass Details

Date: 15 August 2020
Orbit: 830 x 907 km, 81.3° (Epoch: 19 September)

Event Time Altitude Azimuth Distance (km) Brightness Sun altitude
Rises 03:32:18 0° 187° (S) 3,487 7.1 -8.4°
Reaches altitude 10° 03:34:43 10° 187° (S) 2,560 6.4 -8.0°
Maximum altitude 03:40:35 87° 100° (E) 911 4.4 -7.1°
Drops below altitude 10° 03:46:33 10° 11° (N) 2,599 7.3 -6.1°
Sets 03:49:01 0° 11° (N) 3,544 8.0 -5.7°
